Weather History for Cape Girardeau, MO

Change the Weather History Date:

Friday, November 9, 2012

  Actual Average Record
Temperature  
Mean Temperature 54 °F 50 °F  
Max Temperature 71 °F 61 °F 77 °F (1980)
Min Temperature 37 °F 39 °F 12 °F (1991)
Degree Days  
Heating Degree Days 11 15  
Month to date heating degree days 164 126  
Since 1 July heating degree days 509 429  
Cooling Degree Days 0 0  
Month to date cooling degree days 0 0  
Year to date cooling degree days 1784 1451  
Growing Degree Days 4 (Base 50)    
Moisture  
Dew Point 44 °F    
Average Humidity 67    
Maximum Humidity 86    
Minimum Humidity 48    
Precipitation  
Precipitation 0.00 in 0.14 in 1.40 in (1984)
Month to date precipitation 0.01 1.20  
Year to date precipitation 23.97 39.32  
Sea Level Pressure  
Sea Level Pressure 30.11 in    
Wind  
Wind Speed 10 mph (South)    
Max Wind Speed 22 mph    
Max Gust Speed 30 mph    
Visibility 10 miles    
Events      
T = Trace of Precipitation, MM = Missing Value Source: NWS Daily Summary

Daily Weather History Graph

Daily Weather History Graph

Search for Another Location

Airport:

Trip Planner

Search our weather history database for the weather conditions in past years. The results will help you decide how hot, cold, wet, or windy it might be!

Date:

Astronomy

Nov. 09, 2012 Rise Set
Actual Time 6:31 AM CST 4:52 PM CST
Civil Twilight 6:04 AM CST 5:19 PM CST
Nautical Twilight 5:32 AM CST 5:50 PM CST
Astronomical Twilight 5:02 AM CST 6:21 PM CST
Moon 1:36 AM CST (11/9) 2:00 PM CST (11/9)
Length of Visible Light 11h 15m
Length of Day
10h 20m
Waning Crescent, 23% of the Moon is Illuminated
Nov 9
Waning Crescent
Nov 13
New
Nov 20
First Quarter
Nov 28
Full
Dec 6
Last Quarter

Hourly Weather History & Observations

Time (CST) Temp. Windchill Dew Point Humidity Pressure Visibility Wind Dir Wind Speed Gust Speed Precip Events Conditions
12:53 AM 39.0 °F - 34.0 °F 82% 30.15 in 10.0 mi Calm Calm - N/A   Clear
1:53 AM 39.0 °F - 35.1 °F 86% 30.15 in 10.0 mi Calm Calm - N/A   Clear
2:53 AM 39.9 °F 36.7 °F 35.1 °F 83% 30.15 in 10.0 mi South 4.6 mph - N/A   Clear
3:53 AM 41.0 °F 39.0 °F 36.0 °F 82% 30.15 in 10.0 mi SSE 3.5 mph - N/A   Clear
4:53 AM 39.9 °F 37.8 °F 36.0 °F 86% 30.16 in 10.0 mi SSE 3.5 mph - N/A   Clear
5:53 AM 41.0 °F 38.0 °F 37.0 °F 86% 30.16 in 10.0 mi South 4.6 mph - N/A   Clear
6:53 AM 42.1 °F - 37.0 °F 82% 30.16 in 10.0 mi Calm Calm - N/A   Clear
7:53 AM 48.0 °F - 39.9 °F 74% 30.17 in 10.0 mi South 9.2 mph - N/A   Clear
8:53 AM 53.1 °F - 41.0 °F 64% 30.17 in 10.0 mi South 9.2 mph - N/A   Clear
9:53 AM 59.0 °F - 42.1 °F 53% 30.16 in 10.0 mi South 12.7 mph - N/A   Partly Cloudy
10:53 AM 62.1 °F - 43.0 °F 50% 30.14 in 10.0 mi South 16.1 mph - N/A   Clear
11:53 AM 64.9 °F - 46.0 °F 50% 30.11 in 10.0 mi South 17.3 mph 23.0 mph N/A   Clear
12:53 PM 68.0 °F - 50.0 °F 52% 30.07 in 10.0 mi SSW 18.4 mph 26.5 mph N/A   Clear
1:53 PM 70.0 °F - 53.1 °F 55% 30.05 in 10.0 mi SSW 19.6 mph 25.3 mph N/A   Clear
2:53 PM 70.0 °F - 53.1 °F 55% 30.04 in 10.0 mi South 15.0 mph 24.2 mph N/A   Scattered Clouds
3:53 PM 70.0 °F - 53.1 °F 55% 30.04 in 10.0 mi South 15.0 mph 23.0 mph N/A   Clear
4:53 PM 66.9 °F - 53.1 °F 61% 30.04 in 10.0 mi South 15.0 mph - N/A   Clear
5:53 PM 66.0 °F - 53.1 °F 63% 30.04 in 7.0 mi South 12.7 mph - N/A   Clear
6:53 PM 64.0 °F - 53.1 °F 67% 30.05 in 10.0 mi South 13.8 mph 20.7 mph N/A   Clear
7:53 PM 61.0 °F - 52.0 °F 72% 30.06 in 10.0 mi South 9.2 mph - N/A   Clear
8:53 PM 61.0 °F - 48.9 °F 64% 30.07 in 10.0 mi SSW 12.7 mph - N/A   Clear
9:53 PM 60.1 °F - 45.0 °F 57% 30.08 in 10.0 mi SSW 13.8 mph - N/A   Clear
10:53 PM 57.0 °F - 43.0 °F 59% 30.09 in 10.0 mi SSW 10.4 mph 18.4 mph N/A   Clear
11:53 PM 55.0 °F - 43.0 °F 64% 30.09 in 10.0 mi SSW 9.2 mph - N/A   Clear